Location: Unspecified
(47.5840°N, 122.3000°W)
Time: 00:44:59
(UTC+00:00)

Cosmos 1707 - Pass Details

Date: 09 December 2025
Orbit: 380 x 390 km, 82.5° (Epoch: 17 January)

Event Time Altitude Azimuth Distance (km) Brightness Sun altitude
Exits shadow 14:18:24 - 359° (N) 2,372 5.9 -14.0°
Rises 14:18:28 0° 360° (N) 2,344 5.8 -14.0°
Reaches altitude 10° 14:20:41 10° 12° (NNE) 1,474 4.9 -13.6°
Maximum altitude 14:23:31 29° 74° (ENE) 782 4.2 -13.2°
Drops below altitude 10° 14:26:19 10° 137° (SE) 1,449 6.0 -12.7°
Sets 14:28:28 0° 149° (SSE) 2,296 6.9 -12.4°
